Location: Central Falls
(41.8900°N, 71.3929°W)
Time: 04:45:07
(UTC+00:00)

Vanguard 2 Rocket - Pass Details

Date: 06 December 2023
Orbit: 555 x 3309 km, 32.9° (Epoch: 01 March)

Event Time Altitude Azimuth Distance (km) Brightness Sun altitude
Rises 00:06:09 0° 278° (W) 7,270 12.6 -31.2°
Reaches altitude 10° 00:11:22 10° 273° (W) 6,266 12.0 -32.1°
Maximum altitude 00:29:21 45° 210° (SSW) 3,548 9.9 -35.5°
Enters shadow 00:37:46 26° 157° (SSE) 3,862 9.8 -37.1°
Drops below altitude 10° 00:42:18 10° 143° (SE) 4,595 - -37.9°
Sets 00:45:29 0° 137° (SE) 5,262 - -38.5°
